Вернуться в каталог

STARLINK-6270

АктивенСвязьVLEO
NORAD 56421·PAYLOAD·🇺🇸 United States

Запущен May 4, 2023 с Cape Canaveral Space Force Station

Loading…

Ближайшие Пролёты (ближайшие 24 часа)

TLE

СвежийSource: CelesTrak SupGP

Эпоха: Sep 14, 2026, 21:26 UTC

1 56421C 23061AZ  26257.89354167 -.00008157  00000+0 -29548-3 0  2575
2 56421  43.0033 194.6101 0001643 264.3247 111.5141 15.27578343    17

Отслеживайте STARLINK-6270 в реальном времени с AllMySat

Download on the App Store